Location: Northcutt
(34.7304°N, 84.4305°W)
Time: 09:41:20
(UTC+00:00)

Transit 2A - Visible Passes

Search period start: 06 October 2022 00:00
Search period end: 16 October 2022 00:00
Orbit: 601 x 956 km, 66.7° (Epoch: 05 October)

Date Brightness Start Highest point End Pass type
(mag) Time Alt. Az. Time Alt. Az. Time Alt. Az.
09 Oct 8.5 10:57:19 10° NNE 11:00:31 17° NE 11:03:53 10° E visible
10 Oct 8.8 10:24:18 10° NNE 10:25:54 11° NE 10:27:34 10° ENE visible
12 Oct 7.4 10:56:05 10° N 11:00:43 40° ENE 11:05:47 10° SE visible
13 Oct 8.0 10:22:05 10° N 10:26:15 27° ENE 10:30:45 10° ESE visible
14 Oct 8.5 09:48:18 10° N 09:51:44 18° NE 09:55:21 10° E visible
15 Oct 7.3 00:25:23 10° SSE 00:26:58 18° SSE 00:26:58 18° SSE visible
15 Oct 8.7 09:15:03 10° NNE 09:17:08 12° NE 09:19:17 10° ENE visible
15 Oct 6.0 10:55:42 10° NNW 11:00:42 81° WSW 11:06:14 10° SSE visible
15 Oct 7.2 23:52:16 10° SE 23:54:46 15° ESE 23:54:54 15° ESE visible
